Regional Weather Roundup
Issued by NWS Mobile, AL

Home | Current Version | Previous Version | Text Only | Print | Product List | Glossary On
Versions: 1 2 3 4 5 6 7 8 9 10 11 12 13 14 15 16 17 18 19 20 21 22 23 24 25 26 27 28 29 30 31 32 33 34 35 36 37 38 39 40 41 42 43 44 45 46 47 48 49 50
000
ASUS44 KMOB 080716
RWRMOB
REGIONAL WEATHER ROUNDUP
NATIONAL WEATHER SERVICE MOBILE AL
200 AM CDT WED JUL 08 2015

ALZ061>064-080800-
COASTAL ALABAMA


CITY           SKY/WX    TMP DP  RH WIND       PRES   REMARKS
MOBILE REG APT CLEAR     77  73  87 S7        30.12F
BROOKLEY FIELD PTCLDY    77  73  87 S3        30.12F
GULF SHORES    SUNNY     72  72  99 CALM      30.11F

$$

ALZ051>060-080800-
INTERIOR SOUTHWEST AND SOUTH CENTRAL ALABAMA


CITY           SKY/WX    TMP DP  RH WIND       PRES   REMARKS
ANDALUSIA/OPP  PTCLDY    75  70  84 CALM      30.13F
EVERGREEN      PTCLDY    72  71  97 CALM      30.14S
FLORALA        SUNNY     73  71  93 CALM      30.16F
GREENVILLE     FAIR      73  70  90 CALM      30.13F

$$

FLZ001>006-080800-
WESTERN FLORIDA PANHANDLE


CITY           SKY/WX    TMP DP  RH WIND       PRES   REMARKS
CRESTVIEW      CLEAR     73  72  96 CALM      30.14F
DESTIN         CLEAR     82  76  81 CALM      30.13F
DUKE FIELD     FAIR      74  72  92 SE2       30.12F
MARY ESTHER    CLEAR     79  74  84 CALM      30.11F
MILTON         MOSUNNY   77  74  90 CALM      30.13S
PENSACOLA      CLEAR     77  74  90 CALM      30.12F
NAS PENSACOLA  CLEAR     74  72  93 CALM      30.11F
VALPARAISO     NOT AVBL

$$

...MARINE OBSERVATIONS...

STATION/POSITION TIME  SKY/WX   TEMP    WIND        PRES    VSBY
                                AIR SEA DIR/SP/G
                 (UTC)          (F)     (DEG/KT/KT) (MB)    (MI)
PASCAGOULA       0600            84     180/ 10/ 12 1019.7F
PETIT BOIS ISL   0600            84     190/ 12/ 13 1020.4F
E DAUPHIN ISLAND 0700            83     180/  9/ 12 1019.2F
MIDDLE BAY LIGHT 0600            83     200/ 10     1019.3F
USCG MOBILE BAY  0600            79 87  210/  3/  4 1018.9F
STATE DOCKS      0600            81 86              1019.8F
MEAHER PARK      0700            83     200/  8     1019.0F
FORT MORGAN      0600            83     210/  9/  9 1019.7F
12 S ORANGE BCH  0550            84 85  200/  6/  6 1019.7
WVE H/P(F/S)=  1/ 5

PENSACOLA BAY    0600            81 84   CALM  /  1 1020.5F
64 S DAUPHIN ISL 0650            84 86  170/ 10/ 12 1020.1F
WVE H/P(F/S)=  1/ 5

67 S FORT MORGAN 0630            83     160/  8     1020.0F
115 SE PENSACOLA 0550            83 84  130/  2/  2 1021.3
WVE H/P(F/S)=  2/ 6

MID GULF/42001   0650            84 85  110/ 10/ 12 1019.4F
WVE H/P(F/S)=  2/ 7

EAST GULF/42003  0550            85 85   90/ 10/ 10 1019.8
WVE H/P(F/S)=  2/ 8


$$

...NEARBY LOCATIONS

CITY           SKY/WX    TMP DP  RH WIND       PRES   REMARKS
GULFPORT       PTCLDY    83  73  72 S8        30.10F
BILOXI         CLEAR     83  74  74 SW10      30.10S
PASCAGOULA     CLEAR     73  73 100 CALM      30.11F
HATTIESBURG    CLEAR     76  73  91 CALM      30.13S
LAUREL         CLEAR     73  72  94 CALM      30.14F
MERIDIAN       CLEAR     74  72  93 S3        30.13S
MERIDIAN NAS   CLEAR     75  72  90 W5        30.13S
MONTGOMERY     PTCLDY    77  72  84 S5        30.12F
MAXWELL AFB    PTCLDY    76  74  93 S2        30.11F
TROY           PTCLDY    74  72  93 CALM      30.15S
FORT RUCKER    PTCLDY    74  71  91 CALM      30.13F
DALEVILLE      PTCLDY    74  72  94 W2        30.13F
DOTHAN         PTCLDY    78  72  81 NW7       30.17F

$$

...OTHER SURROUNDING LOCATIONS...

CITY           SKY/WX    TMP DP  RH WIND       PRES   REMARKS
BIRMINGHAM     PTCLDY    80  72  76 CALM      30.13F
TUSCALOOSA     CLEAR     73  70  90 CALM      30.12S
COLUMBUS GA    PTCLDY    76  72  87 CALM      30.14S
PANAMA CITY    NOT AVBL
TALLAHASSEE    CLOUDY    78  72  81 CALM      30.14F
BATON ROUGE    CLEAR     76  73  91 E3        30.10F
NEW ORLEANS    PTCLDY    81  75  82 S8        30.10F
SLIDELL        CLEAR     81  77  88 CALM      30.10F
JACKSON        PTCLDY    74  67  78 S7        30.11F
MCCOMB         CLEAR     73  71  93 CALM      30.12F

$$

...SURROUNDING MARINE OBSERVATIONS...

STATION/POSITION TIME  SKY/WX   TEMP    WIND        PRES    VSBY
                                AIR SEA DIR/SP/G
                 (UTC)          (F)     (DEG/KT/KT) (MB)    (MI)
WAVELAND         0600            84 86  190/  7/ 12 1020.0F
PASCAGOULA RGN A 0600            85     190/ 10/ 13 1019.4F
PASCAGOULA PORT  0600               86                N/A
GRAND ISLE       0600            85 87  150/  7/ 11 1020.0F
SOUTHWEST PASS   0700            84     150/ 13/ 14 1019.8F
PILOT STATION E  0600            84 82  150/  9/ 14 1020.3F
SHELL BEACH      0600            82 86  170/  6/  8 1019.2F
PANAMA CITY      0600            83 87  280/  5/  6 1020.1F
APALACHICOLA     0600            79 86  300/  2/  4 1020.4F
TYNDALL TOWER C  0700            82     130/  6/  7 1020.7R
S APLCHCLA/42036 0550            83 86  350/  2/  4 1021.2
WVE H/P(F/S)=  1/ 9


$$



USA.gov is the U.S. government's official web portal to all federal, state and local government web resources and services.